Weather in Gorbunovo

Russia / Altai Republic     50°13′26″N   85°49′51″E
В апреле 2022 года жителям России запретили посещать сайт meteo.paraplan.net по решению Генеральной прокуратуры. Аудитория сайта уменьшилась в 10 раз. Владельцы сайта не видят смысла в поддержке погодного сервера в таких условиях. Сайт будет закрыт в октябре.
temp.,
°C
wind,
m/s
gust,
m/s
humid.,
%
clouds,
%
prec.,
mm/h
press.,
hPa
HPBL,
m
30 september, fri
fri3001:00−11nw129377 0.2 102749
04:00−11wnw119271 0.1 102832
07:00−12sw019283 0.1 103019
10:00−6wsw115781 0.1 10271013
13:00−2wnw123585 0.1 10251767
16:00−1nw2328100 0.0 10222176
19:00−4nw224064 0.1 102522
22:00−7nnw125239 0.0 102825
1 october, sat
sat101:00−7wnw1154100 0.0 103027
04:00−8wnw1159100 0.0 103017
07:00−8wnw0163100 0.0 103222
10:00−4wnw114638 0.0 1033896
13:00−1n123281 0.1 10312141
16:000nne232671 0.1 10302343
19:00−5n22471 0.1 103416
22:00−7ne11575 0.0 103720
2 october, sun
sun201:00−8ne11600 0.0 103814
04:00−9ene11610 0.0 103912
07:00−9ene11610 0.0 104011
10:00−4ese11390 0.0 1038428
13:00+2se11230 0.0 1034928
16:00+4sse01200 0.0 10311111
19:00−3n01360 0.0 103310
22:00−5ene11480 0.0 103612
3 october, mon
mon301:00−6ne11490 0.0 103610
04:00−6ene11480 0.0 103610
07:00−7ne11480 0.0 103710
10:00−1ese11310 0.0 1034291
13:00+5se11200 0.0 1029729
16:00+7e01190 0.0 1026890
19:000n11390 0.0 102812
22:00−3ne11480 0.0 103111
4 october, tue
tue401:00−4ne01490 0.0 103210
04:00−5ne11490 0.0 103210
07:00−5ne11500 0.0 103310
10:00+1se01321 0.0 1031238
13:00+7s112320 0.0 1027631
16:00+9ssw11217 0.0 1025829
19:00+1n114019 0.0 102812
22:00−1nne01500 0.0 103111